sat.trackr.live / text

‹ back to catalog

2024-094B

NORAD 59806 · 2024-094B

PAYLOAD ACTIVE UNKNOWN

§ Identity

Operator
Country
PRC
Launch date
2024-05-20
Launch site
TAISC
Launch vehicle
Mass (kg)
RCS (m²)

External: N2YO · Heavens-Above · Gunter

§ Orbital elements

Epoch: 2026-09-22T23:15:36.484992Z

Period
94.92 min
Inclination
97.3812°
Eccentricity
0.0006187
Mean motion
15.17034397 rev/d
Perigee alt
510.5 km
Apogee alt
519.1 km
Semi-major
6,892.9 km
B*
1.9314e-4
RAAN
334.4743°
Arg perigee
112.2859°
Mean anomaly
247.9031°
Rev number
12,998

§ Raw data

2024-094B1 59806U 24094B   26265.96917228  .00003756  00000+0  19314-3 0  99932 59806  97.3812 334.4743 0006187 112.2859 247.9031 15.17034397129983

JSON: /api/v1/satellites/59806 · /tle

For live sub-satellite position, see the globe view (requires WebGL).

§ Visibility from observer

Set your observer location to see the next 7 days of passes ≥ 10°. The values pass through the URL so the page stays shareable.

No JS? Fill the form by hand. The geolocation button needs JavaScript.